Yankton, SD

8:47 PM CST on December 14, 2019 (GMT -0600)
Gurney Municipal

Weather History for KYKN - October, 2019

Change the Weather History Date:

Wednesday, October 16, 2019

  Actual Average Record
Temperature  
Mean Temperature 46 °F -  
Max Temperature 54 °F 61 °F 93 °F (1958)
Min Temperature 39 °F 35 °F 19 °F (1976)
Degree Days  
Heating Degree Days 18    
Moisture  
Dew Point 35 °F    
Average Humidity 68    
Maximum Humidity 82    
Minimum Humidity 49    
Precipitation  
Precipitation 0.00 in - - ()
Sea Level Pressure  
Sea Level Pressure 30.19 in    
Wind  
Wind Speed 8 mph (North)    
Max Wind Speed 12 mph    
Max Gust Speed -    
Visibility 10 miles    
Events Rain    
Averages and records for this station are not official NWS values.
T = Trace of Precipitation, MM = Missing Value Source: NWS Daily Summary

Daily Weather History Graph

Daily Weather History Graph

Search for Another Location

Airport or City:

Astronomy

Oct. 16, 2019 Rise Set
Actual Time 7:43 AM CDT 6:45 PM CDT
Civil Twilight 7:15 AM CDT 7:14 PM CDT
Nautical Twilight 6:42 AM CDT 7:47 PM CDT
Astronomical Twilight 6:09 AM CDT 8:19 PM CDT
Moon 8:36 PM CDT (10/16) 10:18 AM CDT (10/16)
Length of Visible Light 11h 58m
Length of Day
11h 01m
Waning Gibbous, 92% of the Moon is Illuminated
Oct 16
Waning Gibbous
Oct 21
Last Quarter
Oct 27
New
Nov 4
First Quarter
Nov 12
Full

Hourly Weather History & Observations

Time (CDT) Temp. Windchill Dew Point Humidity Pressure Visibility Wind Dir Wind Speed Gust Speed Precip Events Conditions
12:56 AM 42.1 °F 36.6 °F 36.0 °F 79% 30.28 in 10.0 mi NW 9.2 mph - N/A   Overcast
1:40 AM 42.8 °F 37.5 °F 35.6 °F 76% 30.22 in 10.0 mi NW 9.2 mph - N/A   Overcast
1:56 AM 42.1 °F 36.1 °F 35.1 °F 76% 30.27 in 10.0 mi NW 10.4 mph - N/A   Overcast
2:56 AM 42.1 °F 35.7 °F 35.1 °F 76% 30.28 in 10.0 mi NNW 11.5 mph - N/A   Overcast
3:56 AM 41.0 °F 35.2 °F 34.0 °F 76% 30.27 in 10.0 mi NNW 9.2 mph - N/A   Overcast
4:56 AM 41.0 °F 35.8 °F 34.0 °F 76% 30.28 in 10.0 mi NNW 8.1 mph - N/A   Overcast
5:56 AM 39.9 °F 32.9 °F 33.1 °F 77% 30.28 in 10.0 mi NW 11.5 mph - N/A   Overcast
6:56 AM 39.9 °F 34.5 °F 33.1 °F 77% 30.28 in 10.0 mi NW 8.1 mph - N/A   Overcast
7:56 AM 39.9 °F 35.8 °F 34.0 °F 79% 30.28 in 10.0 mi NNW 5.8 mph - N/A   Overcast
8:56 AM 41.0 °F 37.1 °F 33.1 °F 73% 30.27 in 10.0 mi NNW 5.8 mph - N/A   Overcast
9:40 AM 42.8 °F 40.1 °F 33.8 °F 70% 30.21 in 10.0 mi North 4.6 mph - N/A   Scattered Clouds
9:56 AM 42.1 °F 37.1 °F 33.1 °F 70% 30.28 in 10.0 mi NW 8.1 mph - N/A   Partly Cloudy
10:53 AM 44.6 °F 41.4 °F 33.8 °F 66% 30.21 in 10.0 mi North 5.8 mph - N/A   Mostly Cloudy
10:56 AM 44.1 °F 40.1 °F 34.0 °F 68% 30.27 in 10.0 mi NNW 6.9 mph - N/A   Mostly Cloudy
11:17 AM 44.6 °F 43.1 °F 33.8 °F 66% 30.21 in 10.0 mi Variable 3.5 mph - N/A   Scattered Clouds
11:36 AM 44.6 °F 40.7 °F 33.8 °F 66% 30.20 in 10.0 mi NW 6.9 mph - N/A   Mostly Cloudy
11:56 AM 46.9 °F - 34.0 °F 61% 30.25 in 10.0 mi Calm Calm - N/A   Mostly Cloudy
12:14 PM 46.4 °F 45.2 °F 33.8 °F 62% 30.17 in 10.0 mi West 3.5 mph - N/A   Scattered Clouds
12:56 PM 48.0 °F - 34.0 °F 58% 30.22 in 10.0 mi Variable 3.5 mph - N/A   Clear
1:56 PM 48.9 °F - 34.0 °F 56% 30.19 in 10.0 mi Calm Calm - N/A   Clear
2:56 PM 52.0 °F - 35.1 °F 53% 30.15 in 10.0 mi SSE 6.9 mph - N/A   Clear
3:56 PM 53.1 °F - 35.1 °F 50% 30.13 in 10.0 mi South 9.2 mph - N/A   Clear
4:56 PM 54.0 °F - 35.1 °F 49% 30.10 in 2.5 mi South 6.9 mph - N/A   Haze
5:10 PM 53.6 °F - 35.6 °F 51% 30.05 in 10.0 mi SSE 4.6 mph - N/A   Clear
5:56 PM 52.0 °F - 37.0 °F 57% 30.09 in 6.0 mi SE 5.8 mph - N/A   Haze
6:56 PM 50.0 °F - 36.0 °F 59% 30.08 in 10.0 mi East 5.8 mph - N/A   Clear
7:56 PM 46.9 °F - 36.0 °F 66% 30.07 in 10.0 mi ESE 5.8 mph - N/A   Clear
8:56 PM 44.1 °F 40.1 °F 36.0 °F 73% 30.06 in 10.0 mi East 6.9 mph - N/A   Clear
9:56 PM 43.0 °F 38.8 °F 36.0 °F 76% 30.06 in 10.0 mi East 6.9 mph - N/A   Clear
10:56 PM 41.0 °F 38.0 °F 36.0 °F 82% 30.04 in 7.0 mi East 4.6 mph - 0.00 in Rain Light Rain
11:56 PM 41.0 °F 35.8 °F 35.1 °F 79% 30.04 in 10.0 mi East 8.1 mph - 0.00 in Rain Light Rain